Wind_Speed
6 6 7 8 9 10 12 13 15 17 17 18 18 19 20 20 21 21 21 22 22 24 25 26 26 27 27 27 27 27 27 28 28 28 27 27 27 27 27 27 26 26 26 27
7 8 9 10 11 12 13 14 16 17 18 18 18 19 20 20 21 21 22 23 24 25 26 26 27 27 27 28 28 28 28 28 29 28 27 26 26 26 27 26 26 26 27 28
10 11 11 11 12 13 15 16 16 17 18 19 19 20 21 21 22 22 23 23 23 24 25 26 26 27 28 28 29 29 29 30 30 29 28 27 27 27 26 26 26 26 27 27
11 11 12 13 13 14 15 16 17 18 19 19 19 20 22 22 23 23 23 24 24 25 26 26 27 27 28 28 29 29 29 28 28 28 28 28 27 27 27 27 27 26 26 27
11 12 13 14 15 15 16 16 17 18 19 19 20 20 21 22 23 23 24 24 25 26 26 26 27 27 28 28 28 28 28 28 27 27 28 27 27 27 27 27 27 26 26 26
12 13 14 15 16 16 17 17 18 19 19 20 21 21 21 23 23 24 24 25 26 26 27 28 28 28 28 28 28 28 28 27 27 27 27 27 27 26 26 25 25 25 25 24
13 14 15 16 17 18 18 17 17 18 19 20 23 23 24 24 24 24 25 26 26 26 27 27 28 28 28 28 28 28 27 27 27 27 26 26 26 26 25 25 25 25 24 24
14 15 16 17 17 18 18 18 18 19 21 21 23 24 24 24 25 25 26 26 27 27 27 27 28 28 29 29 29 28 27 26 26 26 26 26 26 26 25 25 25 24 23 23
14 16 17 17 18 18 18 18 19 20 22 22 22 25 25 25 26 26 26 27 27 28 28 28 28 29 29 29 29 28 27 27 27 27 27 26 26 25 25 24 24 22 21 21
14 15 17 17 18 18 18 18 19 19 20 21 22 24 25 26 26 26 26 27 28 28 28 28 28 28 28 28 28 27 28 28 27 27 26 26 25 24 24 23 22 21 20 20
14 15 16 17 17 18 19 19 19 19 20 21 22 24 26 26 27 27 27 28 28 28 28 28 28 28 28 28 28 27 27 26 26 26 26 26 24 23 23 22 21 20 19 19
14 14 16 16 17 18 18 19 20 20 20 21 23 25 27 27 28 28 28 28 28 28 28 28 28 28 28 28 27 27 26 26 26 26 25 24 22 22 21 21 20 20 20 20
15 15 16 18 19 19 19 20 20 20 21 21 23 24 27 27 28 28 28 28 28 28 27 28 28 28 28 27 27 27 27 25 24 23 22 21 20 19 19 19 19 19 20 19
16 16 16 17 18 20 20 20 20 20 21 22 23 25 26 27 27 27 27 28 28 28 28 28 28 27 27 26 26 26 26 24 23 22 21 20 20 19 18 18 18 19 19 19
17 17 18 19 19 20 20 20 20 21 22 22 23 25 26 26 27 27 27 28 28 28 28 27 27 26 26 26 25 24 24 23 22 21 21 20 18 18 18 18 18 19 19 18
17 18 19 19 19 20 20 19 20 21 22 23 24 25 26 26 26 26 26 27 27 27 27 26 25 25 25 25 24 23 23 22 22 20 19 19 18 17 17 18 18 18 18 17
18 19 19 19 20 20 20 20 20 21 22 23 24 24 25 25 25 25 26 27 27 26 26 25 24 25 25 24 23 23 23 22 21 19 19 18 17 17 17 17 17 17 16 16
19 19 20 21 21 20 21 21 21 21 22 23 24 24 25 25 25 25 26 27 26 26 25 24 24 25 25 24 24 23 22 21 20 18 17 16 16 15 15 15 15 15 15 14
19 20 21 21 21 21 22 22 23 23 23 24 24 24 25 25 25 25 25 26 25 25 25 24 24 24 24 24 23 22 21 20 19 18 17 15 15 14 14 14 14 13 13 13
20 21 21 21 21 22 23 23 23 25 25 25 25 25 25 25 25 24 25 24 24 24 24 24 24 24 23 22 21 20 20 18 18 16 15 14 14 15 14 14 13 13 12 12
21 21 22 22 22 24 25 25 25 25 25 26 26 26 26 26 25 25 24 24 24 24 24 24 23 22 22 21 20 19 19 17 16 16 15 14 14 14 14 14 13 12 12 11
22 23 23 23 23 25 26 26 25 26 27 27 27 27 27 26 26 25 24 24 24 24 24 24 22 22 21 21 20 19 17 16 15 15 14 14 13 13 13 13 12 12 11 9
23 24 24 24 25 26 27 27 28 28 28 27 27 27 28 27 26 26 25 25 25 24 24 23 22 21 21 20 19 18 17 16 14 14 14 13 13 12 12 12 11 10 8 8
25 24 25 25 26 27 27 28 28 28 28 28 28 28 28 28 27 26 25 24 24 24 24 23 22 20 20 19 18 17 16 14 14 13 13 13 13 12 11 11 10 9 8 8
26 26 26 26 27 28 28 28 28 28 28 28 29 29 28 28 27 26 25 24 24 23 23 22 21 20 19 18 17 16 15 14 13 13 12 12 12 11 10 10 9 9 8 8
27 28 28 28 28 29 29 28 29 29 29 28 28 28 28 28 27 26 25 24 23 22 21 20 20 19 19 18 17 15 14 12 12 11 11 11 10 9 9 9 9 9 10 10
Wind_Direction
264 269 265 267 272 275 280 284 287 289 291 293 296 298 300 301 301 301 302 303 303 303 303 305 306 306 305 304 304 303 302 301 302 300 297 294 292 292 292 289 288 286 285 284
275 271 273 274 276 280 284 287 290 291 292 295 297 299 300 300 302 304 305 304 303 304 307 310 309 307 306 304 303 303 301 300 301 301 301 296 295 294 293 293 290 288 286 286
268 275 277 280 283 286 288 289 291 293 297 300 302 303 302 301 303 305 305 307 308 309 310 310 310 308 306 305 303 301 300 300 299 299 300 299 296 297 294 292 291 289 289 288
274 279 283 287 288 291 290 290 292 294 301 304 304 303 302 305 305 306 308 309 309 309 310 310 310 310 308 306 303 302 302 301 300 301 300 299 298 299 296 293 293 292 290 290
283 286 289 291 292 292 290 291 294 297 301 303 303 304 303 306 308 308 308 309 310 309 310 310 310 310 308 307 305 303 303 303 303 302 301 299 298 298 296 295 292 289 289 288
291 292 293 294 295 295 296 297 298 303 308 306 304 305 305 308 310 310 310 310 310 309 309 309 309 310 309 307 306 305 304 304 304 304 301 300 299 297 297 296 293 290 289 287
299 298 299 302 301 300 300 302 304 304 303 302 303 304 304 307 309 309 309 309 310 310 310 309 309 309 308 308 308 306 305 305 306 305 303 302 300 299 297 296 293 291 289 287
300 301 304 304 302 300 299 299 298 298 300 300 302 305 306 307 309 309 309 310 311 311 310 309 308 308 307 308 309 307 307 306 306 306 305 303 302 302 299 295 293 291 289 287
302 301 303 303 304 304 303 302 302 303 305 307 307 308 309 311 311 310 309 310 310 311 311 311 311 311 309 308 308 309 309 308 305 305 304 303 303 303 301 299 296 295 291 287
305 305 307 308 308 308 307 308 308 308 308 308 308 309 309 311 311 311 311 311 311 312 313 313 313 312 312 312 311 309 307 306 306 305 306 305 305 304 304 302 299 297 292 289
307 309 311 312 312 313 312 312 311 309 307 308 308 306 308 309 310 311 312 312 312 313 314 313 313 313 313 312 310 309 308 306 306 305 305 306 306 306 304 300 298 297 296 293
310 312 314 314 314 313 311 312 314 312 311 311 310 309 310 309 310 311 313 313 313 314 314 314 314 313 312 310 308 309 309 308 308 307 306 306 307 305 304 302 299 297 296 294
313 314 317 320 321 318 316 316 314 313 313 313 313 313 312 310 311 312 312 313 315 315 314 314 313 313 312 311 310 310 310 309 308 308 307 307 307 306 305 303 301 298 296 295
311 312 313 314 315 316 316 316 315 315 315 315 314 313 313 312 312 314 314 314 316 317 315 315 314 313 313 313 313 313 311 310 308 307 307 307 306 305 305 305 303 300 297 294
310 311 312 313 314 314 312 313 314 314 316 315 314 313 314 315 315 316 315 315 316 316 315 315 315 315 315 315 314 313 313 312 310 307 305 304 305 305 305 303 301 303 299 294
310 310 312 314 315 314 312 313 313 313 314 314 314 314 315 315 316 315 315 315 317 317 316 315 315 315 315 316 314 314 314 313 311 308 308 308 303 303 303 302 301 302 302 299
311 311 312 315 316 314 315 316 315 314 314 314 314 315 316 315 315 316 317 318 318 319 318 317 316 317 317 317 317 317 316 314 314 309 307 310 309 307 305 303 304 304 305 304
311 313 314 316 316 315 314 314 315 314 313 314 314 314 316 317 316 317 318 319 320 320 320 318 317 317 317 317 318 319 318 317 316 314 311 311 312 312 312 312 309 309 308 307
309 312 314 316 315 313 313 315 315 315 314 316 316 315 314 317 318 318 318 318 319 319 319 319 318 318 319 319 319 319 320 319 318 317 314 312 313 313 315 316 315 314 314 314
308 310 313 314 312 313 314 316 316 316 316 318 317 316 316 316 316 316 316 316 317 319 319 320 320 320 321 322 321 321 322 323 324 323 319 315 313 314 313 318 319 317 317 316
308 309 310 311 311 310 312 313 314 315 317 316 317 316 316 315 314 313 314 315 316 319 319 320 321 322 324 327 326 325 325 328 329 326 323 322 319 317 314 317 317 319 318 315
304 306 308 309 310 310 312 311 312 313 314 314 314 314 314 315 314 313 312 312 315 317 318 320 321 321 322 324 325 326 328 328 329 330 330 330 328 324 321 321 320 319 319 318
302 305 306 306 306 308 310 309 309 311 311 312 312 312 312 313 313 313 312 312 314 315 316 319 319 319 320 323 324 327 329 329 329 331 331 332 330 326 324 323 324 323 320 320
300 301 303 304 305 306 307 308 307 308 310 310 310 310 310 311 312 312 312 313 314 314 313 315 317 318 319 322 323 326 328 328 330 330 329 330 331 327 326 328 327 324 323 326
298 300 301 301 302 304 305 306 307 308 309 309 309 309 309 310 310 310 311 311 313 314 312 311 312 314 317 321 322 323 324 325 326 329 333 333 333 334 332 332 333 334 331 330
297 298 299 298 299 300 302 303 304 304 305 305 306 306 306 307 307 307 308 309 310 312 312 313 311 311 313 317 319 317 319 321 323 326 333 334 333 334 337 336 334 336 335 331
Height
5889 5890 5890 5889 5888 5887 5886 5886 5884 5882 5880 5878 5876 5873 5871 5868 5865 5863 5860 5858 5854 5851 5848 5844 5841 5837 5834 5830 5827 5824 5821 5818 5815 5812 5809 5807 5804 5802 5800 5798 5797 5796 5794 5792
5888 5888 5887 5886 5885 5885 5883 5882 5881 5879 5876 5874 5872 5869 5866 5864 5861 5858 5855 5853 5850 5846 5842 5839 5835 5832 5828 5825 5821 5818 5815 5812 5809 5806 5803 5801 5798 5796 5794 5792 5790 5788 5787 5785
5886 5886 5884 5884 5883 5882 5880 5879 5877 5875 5873 5870 5868 5866 5862 5860 5857 5854 5851 5847 5844 5841 5837 5834 5830 5826 5822 5819 5815 5812 5809 5806 5803 5800 5797 5794 5792 5790 5787 5785 5783 5781 5780 5778
5884 5883 5882 5881 5879 5878 5877 5875 5873 5871 5869 5868 5865 5863 5859 5855 5852 5849 5846 5843 5839 5836 5832 5828 5825 5821 5817 5813 5809 5806 5802 5799 5796 5793 5790 5788 5786 5783 5781 5779 5777 5774 5773 5771
5881 5880 5879 5877 5876 5874 5873 5871 5870 5867 5865 5863 5861 5859 5856 5851 5848 5845 5841 5838 5834 5831 5827 5823 5819 5815 5811 5807 5803 5799 5796 5793 5790 5787 5784 5782 5779 5777 5774 5772 5770 5768 5766 5764
5878 5877 5875 5874 5872 5870 5869 5867 5865 5863 5862 5860 5857 5855 5852 5847 5843 5840 5836 5833 5829 5825 5821 5817 5813 5809 5805 5801 5797 5793 5789 5786 5783 5780 5777 5775 5773 5770 5768 5765 5763 5761 5759 5758
5875 5874 5872 5870 5868 5866 5865 5864 5863 5861 5859 5857 5852 5849 5847 5842 5838 5835 5831 5827 5824 5819 5815 5811 5807 5803 5799 5795 5791 5786 5782 5779 5776 5773 5771 5768 5766 5763 5761 5759 5756 5754 5753 5751
5873 5871 5868 5866 5865 5863 5861 5860 5859 5857 5855 5852 5848 5844 5841 5837 5833 5829 5825 5821 5818 5814 5810 5805 5801 5797 5793 5789 5784 5780 5776 5773 5770 5767 5764 5762 5759 5756 5754 5752 5749 5747 5746 5744
5869 5868 5865 5862 5860 5859 5856 5855 5853 5851 5848 5845 5843 5838 5834 5831 5827 5823 5820 5816 5812 5808 5804 5800 5795 5791 5787 5783 5778 5774 5770 5767 5764 5761 5758 5755 5752 5750 5747 5745 5743 5740 5739 5738
5865 5864 5861 5859 5856 5854 5853 5850 5848 5845 5843 5841 5839 5834 5830 5825 5822 5819 5814 5810 5806 5802 5798 5794 5790 5785 5781 5777 5773 5769 5765 5761 5757 5754 5751 5749 5746 5743 5741 5739 5737 5735 5733 5732
5862 5860 5858 5855 5852 5850 5848 5845 5843 5841 5838 5836 5833 5832 5825 5821 5817 5813 5809 5805 5801 5797 5793 5788 5784 5780 5775 5771 5767 5763 5759 5755 5751 5748 5745 5742 5740 5738 5736 5733 5732 5730 5729 5727
5858 5857 5854 5852 5849 5846 5844 5841 5839 5837 5834 5830 5827 5827 5819 5815 5811 5807 5803 5799 5795 5791 5787 5783 5779 5774 5770 5766 5761 5757 5753 5749 5745 5742 5739 5737 5734 5732 5730 5728 5727 5725 5724 5722
5855 5853 5851 5848 5846 5842 5839 5836 5834 5831 5829 5826 5823 5822 5814 5809 5805 5802 5798 5794 5790 5786 5782 5778 5773 5769 5764 5760 5756 5751 5747 5743 5740 5737 5734 5732 5729 5727 5725 5723 5722 5720 5719 5717
5851 5849 5848 5846 5843 5839 5835 5832 5829 5827 5824 5821 5818 5815 5810 5804 5800 5797 5793 5789 5785 5780 5776 5772 5768 5763 5759 5755 5751 5746 5742 5738 5735 5732 5729 5727 5725 5723 5721 5719 5717 5715 5714 5712
5848 5846 5843 5840 5837 5834 5831 5828 5825 5822 5819 5817 5813 5809 5805 5800 5796 5792 5788 5784 5779 5775 5771 5766 5762 5758 5754 5750 5745 5741 5737 5733 5729 5726 5724 5722 5720 5718 5716 5714 5713 5711 5708 5707
5844 5841 5839 5836 5833 5830 5827 5824 5821 5818 5814 5811 5808 5804 5799 5795 5791 5787 5783 5779 5774 5770 5765 5761 5757 5753 5748 5745 5741 5736 5733 5729 5725 5722 5720 5717 5715 5713 5712 5710 5708 5706 5704 5702
5840 5837 5834 5832 5829 5825 5823 5820 5817 5813 5810 5807 5803 5800 5795 5791 5786 5782 5778 5773 5769 5765 5760 5756 5752 5747 5743 5739 5735 5732 5727 5724 5720 5717 5715 5712 5710 5709 5707 5705 5703 5702 5699 5697
5836 5833 5830 5827 5825 5822 5821 5816 5812 5809 5805 5801 5798 5794 5790 5786 5782 5777 5772 5768 5764 5760 5755 5751 5747 5743 5739 5735 5731 5727 5723 5719 5716 5713 5710 5708 5706 5705 5703 5701 5699 5698 5695 5693
5831 5829 5826 5823 5820 5817 5815 5811 5807 5804 5800 5797 5793 5790 5786 5782 5778 5773 5768 5764 5759 5755 5751 5747 5742 5738 5734 5730 5726 5722 5718 5715 5711 5709 5707 5705 5703 5701 5700 5698 5696 5694 5692 5690
5827 5825 5822 5819 5815 5813 5811 5806 5802 5800 5795 5792 5788 5785 5781 5777 5773 5770 5764 5760 5755 5751 5746 5742 5738 5733 5729 5725 5721 5717 5714 5710 5708 5705 5703 5701 5699 5698 5696 5694 5692 5690 5688 5687
5823 5820 5817 5814 5811 5807 5805 5801 5798 5796 5792 5787 5783 5779 5776 5772 5768 5764 5759 5755 5751 5747 5742 5738 5734 5729 5725 5721 5717 5714 5711 5708 5705 5702 5700 5698 5696 5695 5693 5691 5689 5687 5685 5684
5817 5815 5812 5809 5806 5804 5798 5795 5793 5790 5785 5781 5778 5774 5770 5766 5762 5758 5754 5750 5746 5742 5738 5734 5730 5726 5722 5718 5715 5711 5708 5705 5703 5700 5698 5696 5694 5692 5690 5688 5686 5685 5683 5681
5812 5810 5806 5804 5802 5797 5793 5789 5786 5782 5779 5775 5772 5768 5764 5760 5757 5753 5749 5745 5742 5738 5734 5730 5726 5722 5718 5715 5712 5709 5706 5703 5700 5698 5696 5694 5692 5690 5688 5686 5684 5682 5681 5679
5805 5803 5800 5796 5793 5790 5786 5783 5779 5776 5772 5769 5765 5761 5758 5754 5751 5747 5744 5740 5737 5733 5729 5725 5722 5718 5715 5712 5709 5706 5703 5701 5698 5696 5694 5692 5690 5688 5686 5684 5683 5681 5679 5678
5798 5795 5792 5790 5787 5783 5780 5776 5772 5769 5765 5762 5758 5755 5751 5747 5744 5741 5738 5735 5731 5728 5724 5721 5718 5715 5712 5709 5706 5703 5701 5698 5696 5694 5692 5690 5688 5686 5685 5683 5681 5680 5678 5676
5790 5788 5785 5782 5779 5776 5773 5769 5765 5762 5759 5755 5752 5748 5745 5741 5738 5735 5732 5729 5726 5723 5720 5717 5714 5711 5709 5706 5703 5701 5699 5696 5694 5693 5691 5689 5687 5685 5683 5681 5679 5678 5676 5674